Location: Clanezzo
(45.7500°N, 9.6000°E)
Time: 03:30:39
(UTC+00:00)

STARS - Pass Details

Date: 10 July 2022
Orbit: 620 x 637 km, 98.2° (Epoch: 13 August)

Event Time Altitude Azimuth Distance (km) Brightness Sun altitude
Rises 20:48:23 0° 33° (NNE) 2,920 ? -13.1°
Reaches altitude 10° 20:51:47 10° 61° (ENE) 2,002 ? -13.5°
Maximum altitude 20:53:47 13° 89° (E) 1,805 ? -13.7°
Enters shadow 20:54:31 13° 100° (E) 1,829 ? -13.8°
